GAOFEN-6

Last updated on Mon Sep 21 2026 00:02:46 GMT+0000 (Coordinated Universal Time)

1 43484U 18048A 26263.63009620 .00000501 00000+0 79554-4 0 9998 2 43484 98.0875 326.4591 0009663 218.6647 141.3872 14.76445398447473
UTC large
Height (km)
Speed (km/s)
/
Latitude / Longitude
Inclination (degrees)
Orbital Period (minutes)
Azimuth
Elevation
Range (km)
Doppler Factor

Next 0 passes for location: London (51.5072 / 0.1276)

No passes found over London.
GAOFEN-6